DELTA 2 R/B(1)

Last updated on Tue Oct 21 2025 00:02:15 GMT+0000 (Coordinated Universal Time)

1 20453U 90008B 25293.23307732 .00046258 00000+0 85229-3 0 9992 2 20453 35.6089 4.7806 0119466 51.3793 309.7565 15.40521541904362
UTC large
Height (km)
Speed (km/s)
/
Latitude / Longitude
Inclination (degrees)
Orbital Period (minutes)
Azimuth
Elevation
Range (km)
Doppler Factor

Next 0 passes for location: London (51.5072 / 0.1276)

Sorry there are no passes over London.